Terminal Aerodrome Forecast
Issued by NWS

Home | Current Version | Previous Version | Text Only | Print | Product List | Glossary On
Versions: 1 2 3 4 5 6 7 8 9 10 11 12 13 14 15 16 17
000
FTUS44 KSJT 051100
TAFBBD
TAF
KBBD 051120Z 0512/0612 VRB06KT P6SM SCT250
     FM051500 16010KT P6SM SCT025
     FM051800 15011G17KT P6SM SCT250=

USA.gov is the U.S. government's official web portal to all federal, state and local government web resources and services.